Location: Newark
(10.9667°N, 4.8167°W)
Time: 21:18:11
(UTC+00:00)

Hubble Space Telescope - Pass Details

Date: 10 December 2019
Orbit: 536 x 540 km, 28.5° (Epoch: 23 January)

Event Time Altitude Azimuth Distance (km) Brightness Sun altitude
Exits shadow 04:14:28 20° 144° (SE) 1,268 3.1 -31.1°
Drops below altitude 10° 04:17:18 10° 101° (E) 1,783 4.3 -30.5°
Sets 04:20:00 0° 84° (E) 2,674 5.2 -29.9°
